,,PA_Meas_PMT16A,,PR_Meas_QMR101_102,,RH_Meas_QMH101,,SR_Meas_QMS101,,TA_Meas_QMH101,,GenWind,,GenWind,
time,status,PA,status,PR,status,RH,status,SR,status,TA,status,DirAvg,status,SpdAvg,
2015-04-17, 08:44:04,VALID,919.071,VALID,0,VALID,93.8595,VALID,70.9112,VALID,21.5754,VALID,178,VALID,0,
2015-04-17, 08:45:04,VALID,919.061,VALID,0,VALID,93.6155,VALID,73.5972,VALID,21.5754,VALID,159,VALID,0,
2015-04-17, 08:46:04,VALID,919.073,VALID,0,VALID,93.6003,VALID,74.9939,VALID,21.5754,VALID,160,VALID,0,
2015-04-17, 08:47:04,VALID,919.111,VALID,0,VALID,93.6384,VALID,75.6386,VALID,21.5949,VALID,146,VALID,0,
2015-04-17, 08:48:04,VALID,919.123,VALID,0,VALID,93.6384,VALID,76.0683,VALID,21.5949,VALID,157,VALID,0,
2015-04-17, 08:49:04,VALID,919.14,VALID,0,VALID,93.3335,VALID,76.9279,VALID,21.6144,VALID,155,VALID,0,
2015-04-17, 08:50:04,VALID,919.173,VALID,0,VALID,93.6384,VALID,78.432,VALID,21.6144,VALID,155,VALID,0,
2015-04-17, 08:51:04,VALID,919.141,VALID,0,VALID,93.9281,VALID,79.6139,VALID,21.6339,VALID,143,VALID,0,
2015-04-17, 08:52:04,VALID,919.113,VALID,0,VALID,94.2254,VALID,80.4734,VALID,21.5932,VALID,140,VALID,0,
2015-04-17, 08:53:04,VALID,919.105,VALID,0,VALID,94.1416,VALID,80.5809,VALID,21.5949,VALID,154,VALID,0,
2015-04-17, 08:54:04,VALID,919.133,VALID,0,VALID,94.3474,VALID,80.7957,VALID,21.6534,VALID,150,VALID,0,
2015-04-17, 08:55:04,VALID,919.134,VALID,0,VALID,94.3093,VALID,81.5478,VALID,21.6534,VALID,134,VALID,0,
2015-04-17, 08:56:04,VALID,919.135,VALID,0,VALID,94.3703,VALID,82.2999,VALID,21.6729,VALID,133,VALID,0.128516,
2015-04-17, 08:57:04,VALID,919.158,VALID,0,VALID,92.2357,VALID,83.052,VALID,21.712,VALID,121,VALID,1.04258,
2015-04-17, 08:58:04,VALID,919.155,VALID,0,VALID,90.894,VALID,84.019,VALID,21.8095,VALID,150,VALID,1.3918,
2015-04-17, 08:59:04,VALID,919.184,VALID,0,VALID,89.6895,VALID,85.5232,VALID,21.9071,VALID,153,VALID,1.47539,
2015-04-17, 09:00:04,VALID,919.204,VALID,0,VALID,89.9487,VALID,87.2422,VALID,21.9656,VALID,158,VALID,0.528906,
2015-04-17, 09:01:04,VALID,919.253,VALID,0,VALID,89.5294,VALID,88.2092,VALID,21.9656,VALID,139,VALID,1.52383,
2015-04-17, 09:02:04,VALID,919.281,VALID,0,VALID,87.9666,VALID,88.4241,VALID,22.0225,VALID,148,VALID,1.51719,
2015-04-17, 09:03:04,VALID,919.3,VALID,0,VALID,88.3554,VALID,88.2092,VALID,22.0827,VALID,118,VALID,1.21953,
2015-04-17, 09:04:04,VALID,919.271,VALID,0,VALID,88.5917,VALID,88.1017,VALID,22.0437,VALID,147,VALID,1.06914,
2015-04-17, 09:05:04,VALID,919.274,VALID,0,VALID,89.6895,VALID,88.7464,VALID,22.0225,VALID,154,VALID,0.858203,
2015-04-17, 09:07:04,VALID,919.314,VALID,0,VALID,91.1684,VALID,89.6059,VALID,22.003,VALID,170,VALID,0.664844,
2015-04-17, 09:08:04,VALID,919.342,VALID,0,VALID,92.1519,VALID,89.391,VALID,21.964,VALID,167,VALID,0.570703,
2015-04-17, 09:09:04,VALID,919.339,VALID,0,VALID,92.6855,VALID,88.3166,VALID,21.964,VALID,172,VALID,0.325391,
2015-04-17, 09:10:04,VALID,919.334,VALID,0,VALID,93.0057,VALID,84.986,VALID,21.964,VALID,166,VALID,0,
2015-04-17, 09:11:04,VALID,919.395,VALID,0,VALID,93.1963,VALID,79.9362,VALID,21.964,VALID,153,VALID,0,
2015-04-17, 09:12:04,VALID,919.411,VALID,0,VALID,92.9447,VALID,74.4567,VALID,21.9249,VALID,160,VALID,0,
2015-04-17, 09:13:04,VALID,919.422,VALID,0,VALID,93.3564,VALID,69.7293,VALID,21.9249,VALID,147,VALID,0,
2015-04-17, 09:14:04,VALID,919.411,VALID,0,VALID,93.1658,VALID,65.754,VALID,21.9054,VALID,136,VALID,0,
2015-04-17, 09:15:04,VALID,919.449,VALID,0,VALID,92.4797,VALID,62.7456,VALID,21.9054,VALID,140,VALID,0,
2015-04-17, 09:16:04,VALID,919.433,VALID,0,VALID,92.9981,VALID,61.4563,VALID,21.9249,VALID,137,VALID,0,
2015-04-17, 09:17:04,VALID,919.451,VALID,0,VALID,91.9689,VALID,61.8861,VALID,21.9249,VALID,131,VALID,0,
2015-04-17, 09:18:04,VALID,919.473,VALID,0,VALID,92.716,VALID,63.4977,VALID,21.9444,VALID,130,VALID,0,
2015-04-17, 09:19:04,VALID,919.455,VALID,0,VALID,92.9294,VALID,65.1093,VALID,21.9444,VALID,130,VALID,0,
2015-04-17, 09:20:04,VALID,919.491,VALID,0,VALID,93.1581,VALID,66.0763,VALID,21.9444,VALID,130,VALID,0,
2015-04-17, 09:21:04,VALID,919.483,VALID,0,VALID,93.2115,VALID,66.1837,VALID,21.9249,VALID,120,VALID,0.15,
2015-04-17, 09:22:04,VALID,919.484,VALID,0,VALID,93.3182,VALID,65.5391,VALID,21.9054,VALID,129,VALID,0,
2015-04-17, 09:23:04,VALID,919.495,VALID,0,VALID,93.5927,VALID,65.4317,VALID,21.9054,VALID,131,VALID,0,
2015-04-17, 09:24:04,VALID,919.498,VALID,0,VALID,93.6994,VALID,65.8614,VALID,21.9054,VALID,131,VALID,0,
2015-04-17, 09:25:04,VALID,919.52,VALID,0,VALID,93.8595,VALID,67.0433,VALID,21.9054,VALID,131,VALID,0,
2015-04-17, 09:26:04,VALID,919.513,VALID,0,VALID,94.1034,VALID,68.5475,VALID,21.9054,VALID,131,VALID,0,
2015-04-17, 09:27:04,VALID,919.514,VALID,0,VALID,94.4694,VALID,70.374,VALID,21.9444,VALID,131,VALID,0,
2015-04-17, 09:28:04,VALID,919.532,VALID,0,VALID,94.4313,VALID,72.3079,VALID,21.9428,VALID,131,VALID,0,
2015-04-17, 09:29:04,VALID,919.569,VALID,0,VALID,94.2483,VALID,74.779,VALID,21.9428,VALID,131,VALID,0,
2015-04-17, 09:30:04,VALID,919.546,VALID,0,VALID,94.0272,VALID,78.0023,VALID,22.003,VALID,131,VALID,0,
2015-04-17, 09:31:04,VALID,919.56,VALID,0,VALID,93.9815,VALID,81.8702,VALID,21.9233,VALID,139,VALID,0,
2015-04-17, 09:32:04,VALID,919.538,VALID,0,VALID,94.1492,VALID,85.6306,VALID,21.8079,VALID,190,VALID,0,
2015-04-17, 09:33:04,VALID,919.566,VALID,0,VALID,94.5913,VALID,90.4654,VALID,21.7103,VALID,206,VALID,0,
2015-04-17, 09:34:04,VALID,919.565,VALID,0,VALID,94.9192,VALID,96.1598,VALID,21.6128,VALID,206,VALID,0,
2015-04-17, 09:35:04,VALID,919.531,VALID,0,VALID,95.1402,VALID,102.177,VALID,21.4941,VALID,206,VALID,0,
2015-04-17, 09:36:04,VALID,919.498,VALID,0,VALID,95.3842,VALID,107.334,VALID,21.4372,VALID,206,VALID,0,
2015-04-17, 09:37:04,VALID,919.523,VALID,0,VALID,95.6891,VALID,112.061,VALID,21.3981,VALID,206,VALID,0,
2015-04-17, 09:38:04,VALID,919.498,VALID,0,VALID,96.0017,VALID,116.681,VALID,21.4177,VALID,206,VALID,0,
2015-04-17, 09:39:04,VALID,919.472,VALID,0,VALID,96.299,VALID,120.549,VALID,21.4762,VALID,206,VALID,0,
2015-04-17, 09:40:04,VALID,919.445,VALID,0,VALID,96.4057,VALID,121.838,VALID,21.5152,VALID,206,VALID,0,
2015-04-17, 09:41:04,VALID,919.448,VALID,0,VALID,96.4515,VALID,120.334,VALID,21.5721,VALID,206,VALID,0,
2015-04-17, 09:42:04,VALID,919.429,VALID,0,VALID,96.5048,VALID,117.218,VALID,21.6111,VALID,204,VALID,0,
2015-04-17, 09:43:04,VALID,919.412,VALID,0,VALID,96.5429,VALID,115.284,VALID,21.6908,VALID,202,VALID,0,
2015-04-17, 09:44:04,VALID,919.43,VALID,0,VALID,96.5429,VALID,114.103,VALID,21.7298,VALID,186,VALID,0,
2015-04-17, 09:45:04,VALID,919.43,VALID,0,VALID,96.5811,VALID,113.136,VALID,21.7688,VALID,133,VALID,0,
2015-04-17, 09:46:04,VALID,919.452,VALID,0,VALID,96.4819,VALID,112.813,VALID,21.7883,VALID,125,VALID,0.173047,
2015-04-17, 09:47:04,VALID,919.47,VALID,0,VALID,96.4286,VALID,113.136,VALID,21.7477,VALID,135,VALID,0,
2015-04-17, 09:48:04,VALID,919.461,VALID,0,VALID,96.2837,VALID,115.714,VALID,21.7688,VALID,123,VALID,0,
2015-04-17, 09:49:04,VALID,919.473,VALID,0,VALID,96.2304,VALID,119.475,VALID,21.7688,VALID,147,VALID,0,
2015-04-17, 09:50:04,VALID,919.469,VALID,0,VALID,96.2456,VALID,121.838,VALID,21.8079,VALID,127,VALID,0,
2015-04-17, 09:51:04,VALID,919.501,VALID,0,VALID,96.36,VALID,121.086,VALID,21.8452,VALID,136,VALID,0,
2015-04-17, 09:52:04,VALID,919.48,VALID,0,VALID,95.9254,VALID,117.541,VALID,21.8485,VALID,122,VALID,1.40234,
2015-04-17, 09:53:04,VALID,919.489,VALID,0,VALID,95.59,VALID,114.64,VALID,21.9071,VALID,122,VALID,1.68242,
2015-04-17, 09:54:04,VALID,919.479,VALID,0,VALID,95.125,VALID,115.069,VALID,21.9054,VALID,128,VALID,0.798437,
2015-04-17, 09:55:04,VALID,919.5,VALID,0,VALID,94.5913,VALID,119.689,VALID,21.9249,VALID,125,VALID,0,
2015-04-17, 09:56:04,VALID,919.478,VALID,0,VALID,94.3931,VALID,127.425,VALID,21.9444,VALID,118,VALID,0.845703,
2015-04-17, 09:57:04,VALID,919.488,VALID,0,VALID,93.9052,VALID,135.483,VALID,21.9851,VALID,127,VALID,1.50469,
2015-04-17, 09:58:04,VALID,919.495,VALID,0,VALID,93.9967,VALID,142.252,VALID,22.0242,VALID,117,VALID,0.100391,
2015-04-17, 09:59:04,VALID,919.448,VALID,0,VALID,93.7756,VALID,147.517,VALID,22.0437,VALID,149,VALID,0.674219,
2015-04-17, 10:00:04,VALID,919.473,VALID,0,VALID,93.1963,VALID,150.847,VALID,22.0615,VALID,130,VALID,0.962109,
2015-04-17, 10:01:04,VALID,919.471,VALID,0,VALID,92.5025,VALID,152.996,VALID,22.1005,VALID,133,VALID,1.29531,
2015-04-17, 10:02:04,VALID,919.413,VALID,0,VALID,92.9523,VALID,154.071,VALID,22.1396,VALID,148,VALID,0,
2015-04-17, 10:03:04,VALID,919.397,VALID,0,VALID,92.3043,VALID,153.748,VALID,22.1786,VALID,137,VALID,0.826172,
2015-04-17, 10:04:04,VALID,919.335,VALID,0,VALID,92.2052,VALID,150.847,VALID,22.2176,VALID,146,VALID,0,
2015-04-17, 10:05:04,VALID,919.354,VALID,0,VALID,91.2904,VALID,147.946,VALID,22.2567,VALID,147,VALID,0.745703,
2015-04-17, 10:06:04,VALID,919.315,VALID,0,VALID,90.8025,VALID,147.302,VALID,22.3169,VALID,166,VALID,0.510938,
2015-04-17, 10:07:04,VALID,919.286,VALID,0,VALID,90.955,VALID,149.236,VALID,22.3737,VALID,154,VALID,0,
2015-04-17, 10:08:04,VALID,919.299,VALID,0,VALID,90.9702,VALID,152.674,VALID,22.3542,VALID,149,VALID,0.160547,
2015-04-17, 10:09:04,VALID,919.302,VALID,0,VALID,90.4899,VALID,158.261,VALID,22.3135,VALID,156,VALID,0.372656,
2015-04-17, 10:10:04,VALID,919.296,VALID,0,VALID,89.6209,VALID,165.674,VALID,22.3135,VALID,158,VALID,0.458203,
2015-04-17, 10:11:04,VALID,919.3,VALID,0,VALID,90.5052,VALID,173.303,VALID,22.3525,VALID,129,VALID,0.00703125,
2015-04-17, 10:12:04,VALID,919.31,VALID,0,VALID,91.6258,VALID,178.03,VALID,22.3916,VALID,113,VALID,0.0105469,
2015-04-17, 10:13:04,VALID,919.313,VALID,0,VALID,91.7326,VALID,180.501,VALID,22.4289,VALID,131,VALID,0.096875,
2015-04-17, 10:14:04,VALID,919.315,VALID,0,VALID,91.0007,VALID,181.576,VALID,22.4696,VALID,133,VALID,0,
2015-04-17, 10:15:04,VALID,919.303,VALID,0,VALID,91.016,VALID,182.757,VALID,22.5086,VALID,125,VALID,0.366406,
2015-04-17, 10:16:04,VALID,919.312,VALID,0,VALID,88.7747,VALID,184.584,VALID,22.5086,VALID,138,VALID,1.07383,
2015-04-17, 10:17:04,VALID,919.319,VALID,0,VALID,88.9729,VALID,186.733,VALID,22.5672,VALID,140,VALID,0.228906,
2015-04-17, 10:18:04,VALID,919.312,VALID,0,VALID,88.9348,VALID,190.708,VALID,22.6062,VALID,153,VALID,0.00585938,
2015-04-17, 10:19:04,VALID,919.255,VALID,0,VALID,88.1953,VALID,198.659,VALID,22.6257,VALID,144,VALID,1.68086,
2015-04-17, 10:20:04,VALID,919.261,VALID,0,VALID,87.6083,VALID,209.94,VALID,22.6452,VALID,144,VALID,1.56133,
2015-04-17, 10:21:04,VALID,919.257,VALID,0,VALID,87.5397,VALID,222.511,VALID,22.6452,VALID,142,VALID,1.77656,
2015-04-17, 10:22:04,VALID,919.268,VALID,0,VALID,87.433,VALID,237.982,VALID,22.6452,VALID,142,VALID,1.62305,
2015-04-17, 10:23:04,VALID,919.253,VALID,0,VALID,87.8904,VALID,249.586,VALID,22.6647,VALID,141,VALID,1.61953,
2015-04-17, 10:24:04,VALID,919.237,VALID,0,VALID,88.5155,VALID,256.677,VALID,22.6843,VALID,142,VALID,1.53047,
2015-04-17, 10:25:04,VALID,919.245,VALID,0,VALID,87.8294,VALID,260.33,VALID,22.7038,VALID,142,VALID,0.765234,
2015-04-17, 10:26:04,VALID,919.231,VALID,0,VALID,88.95,VALID,263.768,VALID,22.7818,VALID,124,VALID,1.34258,
2015-04-17, 10:27:04,VALID,919.277,VALID,0,VALID,87.4787,VALID,264.198,VALID,22.8014,VALID,129,VALID,3.29258,
2015-04-17, 10:28:04,VALID,919.277,VALID,0,VALID,88.1877,VALID,269.462,VALID,22.8794,VALID,121,VALID,0.704297,
2015-04-17, 10:29:04,VALID,919.3,VALID,0,VALID,86.785,VALID,278.81,VALID,22.9185,VALID,121,VALID,2.46094,
2015-04-17, 10:30:04,VALID,919.305,VALID,0,VALID,87.3643,VALID,289.661,VALID,22.9575,VALID,157,VALID,0.0886719,
2015-04-17, 10:31:04,VALID,919.284,VALID,0,VALID,87.4634,VALID,297.29,VALID,23.0338,VALID,127,VALID,0.321484,
2015-04-17, 10:32:04,VALID,919.303,VALID,0,VALID,86.6935,VALID,308.034,VALID,23.1527,VALID,143,VALID,1.28516,
2015-04-17, 10:33:04,VALID,919.257,VALID,0,VALID,86.9603,VALID,320.497,VALID,23.1704,VALID,142,VALID,0.0828125,
2015-04-17, 10:34:04,VALID,919.232,VALID,0,VALID,85.9769,VALID,335.646,VALID,23.213,VALID,134,VALID,1.48828,
2015-04-17, 10:35:04,VALID,919.215,VALID,0,VALID,86.8231,VALID,343.919,VALID,23.2307,VALID,164,VALID,1.69297,
2015-04-17, 10:36:04,VALID,919.17,VALID,0,VALID,85.3594,VALID,349.828,VALID,23.2715,VALID,148,VALID,0.583203,
2015-04-17, 10:37:04,VALID,919.142,VALID,0,VALID,86.3047,VALID,363.151,VALID,23.3301,VALID,150,VALID,0.627344,
2015-04-17, 10:38:04,VALID,919.142,VALID,0,VALID,85.3441,VALID,385.284,VALID,23.3088,VALID,140,VALID,0.458984,
2015-04-17, 10:39:04,VALID,919.105,VALID,0,VALID,85.3289,VALID,455.873,VALID,23.3674,VALID,126,VALID,0.805859,
2015-04-17, 10:40:04,VALID,919.124,VALID,0,VALID,86.3809,VALID,466.295,VALID,23.5235,VALID,134,VALID,0.178516,
2015-04-17, 10:41:04,VALID,919.139,VALID,0,VALID,85.6338,VALID,481.121,VALID,23.6992,VALID,146,VALID,1.13828,
2015-04-17, 10:42:04,VALID,919.107,VALID,0,VALID,83.2629,VALID,549.454,VALID,23.8358,VALID,151,VALID,1.48164,
2015-04-17, 10:43:04,VALID,919.129,VALID,0,VALID,83.2096,VALID,539.892,VALID,23.9335,VALID,150,VALID,0.851172,
2015-04-17, 10:44:04,VALID,919.112,VALID,0,VALID,82.8513,VALID,484.774,VALID,24.0311,VALID,155,VALID,0.313672,
2015-04-17, 10:45:04,VALID,919.107,VALID,0,VALID,82.0584,VALID,467.906,VALID,24.0701,VALID,139,VALID,1.6,
2015-04-17, 10:46:04,VALID,919.117,VALID,0,VALID,81.9746,VALID,427.186,VALID,24.1287,VALID,140,VALID,2.84883,
2015-04-17, 10:47:04,VALID,919.132,VALID,0,VALID,82.6683,VALID,409.243,VALID,24.1073,VALID,179,VALID,0.757813,
2015-04-17, 10:48:04,VALID,919.14,VALID,0,VALID,80.0382,VALID,375.077,VALID,24.1092,VALID,162,VALID,1.5875,
2015-04-17, 10:49:04,VALID,919.186,VALID,0,VALID,82.1118,VALID,357.242,VALID,24.0311,VALID,148,VALID,0.00585938,
2015-04-17, 10:50:04,VALID,919.17,VALID,0,VALID,81.0903,VALID,343.597,VALID,24.0115,VALID,156,VALID,1.48359,
2015-04-17, 10:51:04,VALID,919.157,VALID,0,VALID,81.4257,VALID,333.712,VALID,24.0115,VALID,158,VALID,0.551562,
2015-04-17, 10:52:04,VALID,919.145,VALID,0,VALID,80.9226,VALID,327.266,VALID,23.9512,VALID,154,VALID,1.31523,
2015-04-17, 10:53:04,VALID,919.108,VALID,0,VALID,80.4728,VALID,322.646,VALID,23.9121,VALID,146,VALID,0.482422,
2015-04-17, 10:54:04,VALID,919.074,VALID,0,VALID,81.3495,VALID,316.307,VALID,23.9512,VALID,141,VALID,0.264062,
2015-04-17, 10:55:04,VALID,919.053,VALID,0,VALID,80.6024,VALID,311.15,VALID,23.9121,VALID,111,VALID,1.28867,
2015-04-17, 10:56:04,VALID,919.039,VALID,0,VALID,82.5387,VALID,309.323,VALID,23.8926,VALID,120,VALID,0,
2015-04-17, 10:57:04,VALID,918.993,VALID,0,VALID,82.4244,VALID,312.761,VALID,23.9316,VALID,115,VALID,0,
2015-04-17, 10:58:04,VALID,918.996,VALID,0,VALID,80.8311,VALID,318.133,VALID,24.0097,VALID,140,VALID,0.755859,
2015-04-17, 10:59:04,VALID,918.996,VALID,0,VALID,80.3051,VALID,322.431,VALID,24.0097,VALID,160,VALID,1.10586,
2015-04-17, 11:00:04,VALID,918.978,VALID,0,VALID,80.9073,VALID,325.869,VALID,24.0097,VALID,115,VALID,0,
2015-04-17, 11:01:04,VALID,918.985,VALID,0,VALID,81.2427,VALID,329.737,VALID,24.0896,VALID,114,VALID,0.0195313,
2015-04-17, 11:02:04,VALID,918.99,VALID,0,VALID,80.6939,VALID,332.745,VALID,24.0488,VALID,94,VALID,0.73125,
2015-04-17, 11:03:04,VALID,919.013,VALID,0,VALID,81.4333,VALID,336.076,VALID,24.0878,VALID,126,VALID,1.0457,
2015-04-17, 11:04:04,VALID,918.996,VALID,0,VALID,80.8006,VALID,334.787,VALID,24.1464,VALID,163,VALID,0,
2015-04-17, 11:05:04,VALID,919.002,VALID,0,VALID,81.1894,VALID,315.447,VALID,24.2635,VALID,167,VALID,0,
2015-04-17, 11:06:04,VALID,919.013,VALID,0,VALID,78.4526,VALID,307.926,VALID,24.2068,VALID,132,VALID,1.46914,
2015-04-17, 11:07:04,VALID,918.966,VALID,0,VALID,80.7701,VALID,307.389,VALID,24.2049,VALID,132,VALID,0,
2015-04-17, 11:08:04,VALID,919.002,VALID,0,VALID,78.9328,VALID,313.943,VALID,24.2458,VALID,140,VALID,0.582812,
2015-04-17, 11:09:04,VALID,918.956,VALID,0,VALID,78.849,VALID,332.638,VALID,24.2263,VALID,87,VALID,0.241406,
2015-04-17, 11:10:04,VALID,918.958,VALID,0,VALID,79.8019,VALID,368.201,VALID,24.2049,VALID,127,VALID,1.48828,
2015-04-17, 11:11:04,VALID,918.953,VALID,0,VALID,81.0979,VALID,331.134,VALID,24.1464,VALID,146,VALID,0.7375,
2015-04-17, 11:12:04,VALID,918.938,VALID,0,VALID,79.1158,VALID,291.918,VALID,24.1482,VALID,185,VALID,0.0289063,
2015-04-17, 11:13:04,VALID,918.943,VALID,0,VALID,79.4817,VALID,287.727,VALID,24.1659,VALID,160,VALID,0.279687,
2015-04-17, 11:14:04,VALID,918.978,VALID,0,VALID,79.2607,VALID,277.413,VALID,24.2068,VALID,125,VALID,1.75195,
2015-04-17, 11:15:04,VALID,918.994,VALID,0,VALID,80.6252,VALID,265.702,VALID,24.1464,VALID,142,VALID,0.419922,
2015-04-17, 11:16:04,VALID,919.01,VALID,0,VALID,80.7167,VALID,259.363,VALID,24.1073,VALID,116,VALID,0.746875,
2015-04-17, 11:17:04,VALID,919.009,VALID,0,VALID,81.38,VALID,265.487,VALID,24.1464,VALID,103,VALID,0,
2015-04-17, 11:18:04,VALID,919.006,VALID,0,VALID,80.1145,VALID,268.173,VALID,24.2049,VALID,101,VALID,0.0289063,
2015-04-17, 11:19:04,VALID,919.047,VALID,0,VALID,77.9723,VALID,265.702,VALID,24.2049,VALID,95,VALID,1.88594,
2015-04-17, 11:20:04,VALID,918.977,VALID,0,VALID,77.5149,VALID,274.082,VALID,24.1464,VALID,170,VALID,1.17461,
2015-04-17, 11:21:04,VALID,918.995,VALID,0,VALID,78.6355,VALID,256.999,VALID,24.0683,VALID,105,VALID,1.08164,
2015-04-17, 11:22:04,VALID,918.99,VALID,0,VALID,77.2862,VALID,239.271,VALID,23.9512,VALID,111,VALID,2.68945,
2015-04-17, 11:23:04,VALID,918.957,VALID,0,VALID,79.1234,VALID,226.056,VALID,23.8926,VALID,128,VALID,1.85664,
2015-04-17, 11:24:04,VALID,918.948,VALID,0,VALID,79.4817,VALID,219.502,VALID,23.8536,VALID,93,VALID,1.05859,
2015-04-17, 11:25:04,VALID,918.917,VALID,0,VALID,79.7714,VALID,216.709,VALID,23.7755,VALID,99,VALID,0.869922,
2015-04-17, 11:26:04,VALID,918.886,VALID,0,VALID,80.3432,VALID,214.667,VALID,23.7346,VALID,92,VALID,1.625,
2015-04-17, 11:27:04,VALID,918.877,VALID,0,VALID,78.8414,VALID,210.047,VALID,23.7364,VALID,97,VALID,1.0418,
2015-04-17, 11:28:04,VALID,918.882,VALID,0,VALID,79.0929,VALID,204.031,VALID,23.756,VALID,111,VALID,1.73477,
2015-04-17, 11:29:04,VALID,918.863,VALID,0,VALID,78.5669,VALID,198.551,VALID,23.7364,VALID,94,VALID,2.0668,
2015-04-17, 11:30:04,VALID,918.864,VALID,0,VALID,80.0992,VALID,195.865,VALID,23.6956,VALID,73,VALID,1.08984,
2015-04-17, 11:31:04,VALID,918.863,VALID,0,VALID,79.7562,VALID,199.518,VALID,23.7364,VALID,109,VALID,0.6375,
2015-04-17, 11:32:04,VALID,918.821,VALID,0,VALID,80.9454,VALID,199.733,VALID,23.7169,VALID,77,VALID,0.533984,
2015-04-17, 11:33:04,VALID,918.823,VALID,0,VALID,80.9226,VALID,193.287,VALID,23.7169,VALID,96,VALID,0.825781,
2015-04-17, 11:34:04,VALID,918.816,VALID,0,VALID,80.1145,VALID,184.262,VALID,23.6761,VALID,107,VALID,2.32891,
2015-04-17, 11:35:04,VALID,918.792,VALID,0,VALID,79.7867,VALID,176.203,VALID,23.6584,VALID,115,VALID,1.34453,
2015-04-17, 11:36:04,VALID,918.76,VALID,0,VALID,79.3903,VALID,168.36,VALID,23.6388,VALID,87,VALID,2.23242,
2015-04-17, 11:37:04,VALID,918.721,VALID,0,VALID,80.1831,VALID,161.269,VALID,23.5998,VALID,101,VALID,1.11211,
2015-04-17, 11:38:04,VALID,918.698,VALID,0,VALID,80.8463,VALID,153.963,VALID,23.5412,VALID,119,VALID,1.30313,
2015-04-17, 11:39:04,VALID,918.679,VALID,0,VALID,81.9517,VALID,146.765,VALID,23.5217,VALID,113,VALID,0.106641,
2015-04-17, 11:40:04,VALID,918.673,VALID,0,VALID,82.0356,VALID,139.244,VALID,23.5217,VALID,114,VALID,0.169922,
2015-04-17, 11:41:04,VALID,918.68,VALID,0,VALID,81.784,VALID,131.186,VALID,23.5022,VALID,124,VALID,0.678125,
2015-04-17, 11:42:04,VALID,918.708,VALID,0,VALID,81.2199,VALID,123.02,VALID,23.4632,VALID,127,VALID,1.58359,
2015-04-17, 11:43:04,VALID,918.721,VALID,0,VALID,82.1423,VALID,113.673,VALID,23.4437,VALID,111,VALID,0.197656,
2015-04-17, 11:44:04,VALID,918.738,VALID,0,VALID,82.9961,VALID,102.714,VALID,23.4437,VALID,139,VALID,0,
2015-04-17, 11:45:04,VALID,918.773,VALID,0,VALID,83.6441,VALID,92.3994,VALID,23.4046,VALID,134,VALID,1.21953,
2015-04-17, 11:46:04,VALID,918.772,VALID,0,VALID,81.8602,VALID,84.7711,VALID,23.3265,VALID,123,VALID,1.62695,
2015-04-17, 11:47:04,VALID,918.73,VALID,0,VALID,83.019,VALID,80.2585,VALID,23.307,VALID,163,VALID,1.09063,
2015-04-17, 11:48:04,VALID,918.738,VALID,0,VALID,82.4396,VALID,79.6139,VALID,23.2875,VALID,165,VALID,0,
2015-04-17, 11:49:04,VALID,918.652,VALID,0,VALID,82.4549,VALID,81.5478,VALID,23.307,VALID,165,VALID,0,
2015-04-17, 11:50:04,VALID,918.639,VALID,0,VALID,82.9351,VALID,84.2339,VALID,23.3283,VALID,137,VALID,2.18828,
2015-04-17, 11:51:04,VALID,918.594,VALID,0,VALID,81.1055,VALID,86.705,VALID,23.2485,VALID,135,VALID,2.3832,
2015-04-17, 11:52:04,VALID,918.551,VALID,0,VALID,82.4472,VALID,87.4571,VALID,23.2485,VALID,167,VALID,0,
2015-04-17, 11:53:04,VALID,918.545,VALID,0,VALID,82.6226,VALID,86.8125,VALID,23.2502,VALID,153,VALID,1.02813,
2015-04-17, 11:54:04,VALID,918.542,VALID,0,VALID,83.3697,VALID,85.738,VALID,23.1917,VALID,123,VALID,1.09648,
2015-04-17, 11:55:04,VALID,918.559,VALID,0,VALID,83.8271,VALID,83.9115,VALID,23.1314,VALID,154,VALID,1.36016,
2015-04-17, 11:56:04,VALID,918.497,VALID,0,VALID,84.1396,VALID,81.7627,VALID,23.0941,VALID,141,VALID,1.04258,
2015-04-17, 11:57:04,VALID,918.49,VALID,0,VALID,84.7876,VALID,79.6139,VALID,23.0551,VALID,169,VALID,1.36445,
2015-04-17, 11:58:04,VALID,918.48,VALID,0,VALID,84.9553,VALID,78.3246,VALID,23.0356,VALID,161,VALID,2.09102,
2015-04-17, 11:59:04,VALID,918.45,VALID,0,VALID,85.7863,VALID,78.0023,VALID,22.9965,VALID,115,VALID,0.662109,
2015-04-17, 12:00:04,VALID,918.442,VALID,0,VALID,85.5576,VALID,78.1097,VALID,22.9575,VALID,125,VALID,0.511719,
2015-04-17, 12:01:04,VALID,918.395,VALID,0,VALID,85.8625,VALID,78.3246,VALID,22.8989,VALID,141,VALID,1.8043,
2015-04-17, 12:02:04,VALID,918.357,VALID,0,VALID,85.5576,VALID,78.8618,VALID,22.8599,VALID,127,VALID,3.15352,
2015-04-17, 12:03:04,VALID,918.331,VALID,0,VALID,85.6338,VALID,78.7544,VALID,22.8599,VALID,161,VALID,2.63281,
2015-04-17, 12:04:04,VALID,918.324,VALID,0,VALID,85.8244,VALID,78.1097,VALID,22.8404,VALID,137,VALID,1.45664,
2015-04-17, 12:05:04,VALID,918.332,VALID,0,VALID,85.7329,VALID,76.713,VALID,22.8014,VALID,130,VALID,0.0886719,
2015-04-17, 12:06:04,VALID,918.279,VALID,0,VALID,85.9464,VALID,74.6716,VALID,22.8209,VALID,103,VALID,0.205469,
2015-04-17, 12:07:04,VALID,918.261,VALID,0,VALID,85.489,VALID,72.4153,VALID,22.7996,VALID,128,VALID,0.825781,
2015-04-17, 12:08:04,VALID,918.239,VALID,0,VALID,85.6186,VALID,71.6632,VALID,22.7801,VALID,120,VALID,0,
2015-04-17, 12:09:04,VALID,918.203,VALID,0,VALID,84.9782,VALID,71.126,VALID,22.7996,VALID,143,VALID,0,
2015-04-17, 12:10:04,VALID,918.183,VALID,0,VALID,85.245,VALID,70.0516,VALID,22.8191,VALID,140,VALID,0,
2015-04-17, 12:11:04,VALID,918.152,VALID,0,VALID,85.4204,VALID,68.5475,VALID,22.8794,VALID,139,VALID,0,
2015-04-17, 12:12:04,VALID,918.126,VALID,0,VALID,85.4814,VALID,67.2582,VALID,22.8972,VALID,139,VALID,0,
2015-04-17, 12:13:04,VALID,918.135,VALID,0,VALID,85.5957,VALID,65.2168,VALID,22.9362,VALID,136,VALID,0,
2015-04-17, 12:14:04,VALID,918.105,VALID,0,VALID,85.9159,VALID,63.4977,VALID,22.9167,VALID,136,VALID,0,
2015-04-17, 12:15:04,VALID,918.091,VALID,0,VALID,85.5957,VALID,61.6712,VALID,22.9167,VALID,139,VALID,0,
2015-04-17, 12:16:04,VALID,918.071,VALID,0,VALID,85.2145,VALID,59.7373,VALID,22.9167,VALID,139,VALID,0,
2015-04-17, 12:17:04,VALID,918.105,VALID,0,VALID,84.6809,VALID,57.481,VALID,22.9362,VALID,150,VALID,0,
2015-04-17, 12:18:04,VALID,918.078,VALID,0,VALID,84.8791,VALID,56.2992,VALID,22.9753,VALID,188,VALID,0,
2015-04-17, 12:19:04,VALID,918.082,VALID,0,VALID,84.8486,VALID,55.3322,VALID,22.9753,VALID,181,VALID,0,
2015-04-17, 12:20:04,VALID,918.028,VALID,0,VALID,83.5298,VALID,55.6545,VALID,22.9185,VALID,111,VALID,0,
2015-04-17, 12:21:04,VALID,918.016,VALID,0,VALID,84.193,VALID,57.0513,VALID,22.8582,VALID,96,VALID,0,
2015-04-17, 12:22:04,VALID,917.964,VALID,0,VALID,85.4966,VALID,58.5554,VALID,22.7996,VALID,151,VALID,0,
2015-04-17, 12:23:04,VALID,917.939,VALID,0,VALID,84.9553,VALID,58.9852,VALID,22.7801,VALID,156,VALID,0,